Weather in Tsentaroy

Russia / Chechen Republic     43°00′27″N   46°13′24″E
temp.,
°C
wind,
m/s
gust,
m/s
humid.,
%
clouds,
%
prec.,
mm/h
press.,
hPa
HPBL,
m
13 may, thu
thu1300:00+11sse22710 0.0 101418
03:00+11s22605 0.0 101423
06:00+14sse22562 0.0 101334
09:00+20n22451 0.0 1013449
12:00+23n334617 0.0 1013877
15:00+22n215540 0.2 1013646
18:00+18nnw127819 0.1 1014101
21:00+15ssw218478 0.1 101613
14 may, fri
fri1400:00+14s22767 0.0 101521
03:00+14s32585 0.0 101525
06:00+16s22543 0.0 101530
09:00+24nne22380 0.0 1013564
12:00+26nne33380 0.0 10121351
15:00+27n32387 0.0 10111057
18:00+20ssw4665100 0.8 1013178
21:00+16s4462100 1.2 101474
15 may, sat
sat1500:00+16s43530 0.0 101339
03:00+16s43550 0.0 101339
06:00+17s33540 0.0 101339
09:00+23n21400 0.0 1013625
12:00+25n32420 0.0 10141192
15:00+25nne32460 0.3 10131296
18:00+21nnw116694 0.4 101339
21:00+17s326978 0.5 101426
16 may, sun
sun1600:00+16s3265100 0.0 101336
03:00+15s33606 0.0 101241
06:00+17s33634 0.0 101160
09:00+24nne22413 0.0 1010946
12:00+27n33371 0.0 10081556
15:00+27n33340 0.0 10061421
18:00+23nnw01580 0.0 100611
21:00+18s43520 0.0 100748
17 may, mon
mon1700:00+16sse443976 0.0 100761
03:00+15s44373 0.0 100750
06:00+17s33485 0.0 100751
09:00+25n113243 0.0 1006654
12:00+27n323210 0.0 10051054
15:00+27n32340 0.0 10051092
18:00+23n116072 0.0 100615
21:00+19ssw226215 0.0 100818